Location: Bun Machan
(52.1403°N, 7.3744°W)
Time: 19:03:42
(UTC+00:00)

Cosmos 2082 Rocket - Pass Details

Date: 14 July 2020
Orbit: 834 x 853 km, 71.0° (Epoch: 11 August)

Event Time Altitude Azimuth Distance (km) Brightness Sun altitude
Exits shadow 02:22:45 10° 169° (S) 2,455 4.1 -12.6°
Maximum altitude 02:27:44 34° 107° (ESE) 1,378 3.4 -12.3°
Drops below altitude 10° 02:32:48 10° 44° (NE) 2,489 6.0 -11.9°
Sets 02:35:27 0° 36° (NE) 3,427 7.4 -11.7°
